contact:dominique.lefevre@mio.osupytheas.fr, maurice.libes@osupytheas.fr, didier.mallarino@osupytheas.fr
Project:EMSO http://www.emso-fr.org/EMSO-France
Depth: 2436.0 m
Title:EMSO Ligure Ouest : Data MII capteur AQUADOPP
Date,Latitude,Longitude,X_East,Y_North,Z_Up,Amplitude_X,Amplitude_Y,Amplitude_Z,Batterie,SoundSpeed,Heading,Pitch,Roll,Pressure,TIS,Speed,Direction
, degrees North, degrees East, m.s-1, m.s-1,m.s-1, 1, 1, 1, Volt, m.s-1, degree, degree, degree, dbar, degree_C, m.s-1, degree
2024-04-04T00:04:03,42.805,6.029,-0.038,0.003,-0.018,110.0,110.0,105.0,13.3,1505.2,3.1,-0.8,1.8,2471.76,13.29,0.038,274.5
2024-04-04T00:07:03,42.805,6.029,-0.058,0.001,-0.001,110.0,108.0,107.0,13.4,1505.2,351.4,-0.7,1.8,2471.751,13.29,0.058,271.0
2024-04-04T00:10:03,42.805,6.029,-0.055,0.014,-0.021,111.0,109.0,106.0,13.3,1505.2,2.8,-0.8,1.8,2471.755,13.29,0.056,284.3
2024-04-04T00:13:03,42.805,6.029,-0.03,0.018,-0.028,109.0,110.0,106.0,13.4,1505.2,8.2,-0.8,1.8,2471.772,13.29,0.034,301.0
2024-04-04T00:16:03,42.805,6.029,-0.059,-0.023,0.01,109.0,109.0,106.0,13.4,1505.2,0.0,-0.7,1.8,2471.747,13.29,0.063,248.7
2024-04-04T00:19:03,42.805,6.029,-0.043,-0.001,-0.009,109.0,108.0,106.0,13.3,1505.2,352.1,-0.8,1.8,2471.748,13.29,0.043,268.7
2024-04-04T00:22:03,42.805,6.029,-0.064,-0.003,0.002,109.0,108.0,107.0,13.4,1505.2,356.6,-0.8,1.8,2471.734,13.29,0.064,267.3
2024-04-04T00:25:03,42.805,6.029,-0.043,0.005,0.009,110.0,109.0,106.0,13.3,1505.2,353.4,-0.7,1.8,2471.768,13.29,0.043,276.6
2024-04-04T00:28:03,42.805,6.029,-0.033,0.007,-0.037,110.0,109.0,105.0,13.4,1505.2,1.6,-0.7,1.8,2471.797,13.29,0.033,282.0
2024-04-04T00:31:03,42.805,6.029,-0.053,0.012,-0.002,110.0,109.0,107.0,13.4,1505.2,7.1,-0.8,1.8,2471.72,13.29,0.054,282.8
2024-04-04T00:34:03,42.805,6.029,-0.048,0.008,-0.009,111.0,109.0,107.0,13.3,1505.2,353.4,-0.8,1.8,2471.754,13.29,0.048,279.5
2024-04-04T00:37:03,42.805,6.029,-0.064,0.013,-0.009,110.0,109.0,106.0,13.3,1505.2,3.0,-0.7,1.8,2471.758,13.29,0.065,281.5
2024-04-04T00:40:03,42.805,6.029,-0.048,0.006,0.006,110.0,109.0,105.0,13.4,1505.2,359.4,-0.7,1.8,2471.765,13.29,0.048,277.1
2024-04-04T00:43:03,42.805,6.029,-0.062,0.004,-0.003,110.0,109.0,106.0,13.4,1505.2,357.3,-0.8,1.9,2471.756,13.29,0.062,273.7
2024-04-04T00:46:03,42.805,6.029,-0.041,-0.015,-0.01,109.0,109.0,106.0,13.4,1505.2,357.5,-0.7,1.8,2471.77,13.29,0.043,249.9
2024-04-04T00:49:03,42.805,6.029,-0.049,-0.003,-0.001,110.0,107.0,106.0,13.3,1505.2,358.9,-0.7,1.8,2471.74,13.29,0.049,266.5
2024-04-04T00:52:03,42.805,6.029,-0.048,0.002,-0.008,109.0,108.0,106.0,13.4,1505.2,351.5,-0.8,1.8,2471.78,13.29,0.048,272.4
2024-04-04T00:55:03,42.805,6.029,-0.058,0.012,-0.016,110.0,108.0,106.0,13.4,1505.2,1.2,-0.8,1.8,2471.778,13.29,0.059,281.7
2024-04-04T00:58:03,42.805,6.029,-0.065,0.019,-0.02,111.0,110.0,106.0,13.3,1505.2,357.1,-0.8,1.8,2471.766,13.29,0.067,286.3
2024-04-04T01:04:03,42.805,6.029,-0.032,0.016,-0.005,112.0,111.0,107.0,13.4,1505.2,356.9,-0.8,1.8,2471.811,13.29,0.035,296.6
2024-04-04T01:07:03,42.805,6.029,-0.059,0.016,-0.013,111.0,110.0,106.0,13.3,1505.2,0.5,-0.8,1.8,2471.781,13.29,0.061,285.2
2024-04-04T01:10:03,42.805,6.029,-0.078,0.012,-0.041,112.0,109.0,107.0,13.4,1505.2,358.8,-0.8,1.8,2471.807,13.29,0.078,278.7
2024-04-04T01:13:03,42.805,6.029,-0.038,0.014,-0.027,110.0,110.0,106.0,13.4,1505.2,356.1,-0.7,1.8,2471.805,13.29,0.04,290.2
2024-04-04T01:16:03,42.805,6.029,-0.047,-0.005,-0.036,110.0,109.0,107.0,13.4,1505.2,356.0,-0.8,1.8,2471.779,13.29,0.047,263.9
2024-04-04T01:19:03,42.805,6.029,-0.057,0.018,-0.001,109.0,110.0,106.0,13.4,1505.2,1.8,-0.8,1.8,2471.804,13.29,0.059,287.5
2024-04-04T01:22:03,42.805,6.029,-0.06,0.011,-0.02,110.0,108.0,105.0,13.3,1505.2,355.0,-0.8,1.8,2471.777,13.29,0.06,280.4
2024-04-04T01:25:03,42.805,6.029,-0.065,0.002,-0.021,108.0,109.0,106.0,13.4,1505.2,351.2,-0.7,1.8,2471.777,13.29,0.065,271.8
2024-04-04T01:28:03,42.805,6.029,-0.065,0.023,-0.034,110.0,109.0,105.0,13.4,1505.2,352.8,-0.7,1.8,2471.773,13.29,0.068,289.5
2024-04-04T01:31:03,42.805,6.029,-0.055,0.009,-0.011,109.0,108.0,107.0,13.3,1505.2,6.6,-0.8,1.9,2471.806,13.29,0.055,279.3
2024-04-04T01:34:03,42.805,6.029,-0.07,-0.005,-0.017,109.0,108.0,105.0,13.4,1505.2,352.0,-0.8,1.8,2471.821,13.29,0.07,265.9
2024-04-04T01:37:03,42.805,6.029,-0.058,0.015,-0.043,109.0,109.0,105.0,13.4,1505.2,1.8,-0.8,1.8,2471.784,13.29,0.059,284.5
2024-04-04T01:40:03,42.805,6.029,-0.047,0.022,-0.012,110.0,109.0,106.0,13.4,1505.2,8.6,-0.7,1.8,2471.789,13.29,0.051,295.1
2024-04-04T01:43:03,42.805,6.029,-0.052,0.007,0.003,109.0,110.0,105.0,13.4,1505.2,0.0,-0.7,1.8,2471.825,13.29,0.052,277.7
2024-04-04T01:46:03,42.805,6.029,-0.029,0.016,-0.001,110.0,107.0,106.0,13.4,1505.2,3.0,-0.7,1.8,2471.828,13.29,0.033,298.9
2024-04-04T01:49:03,42.805,6.029,-0.041,0.035,-0.037,109.0,108.0,104.0,13.4,1505.2,4.2,-0.8,1.8,2471.804,13.29,0.053,310.5
2024-04-04T01:52:03,42.805,6.029,-0.046,0.007,-0.04,107.0,107.0,105.0,13.4,1505.2,0.0,-0.8,1.8,2471.776,13.29,0.046,278.7
2024-04-04T01:55:03,42.805,6.029,-0.067,0.024,-0.029,107.0,107.0,105.0,13.4,1505.2,7.6,-0.8,1.8,2471.787,13.29,0.071,289.7
2024-04-04T01:58:03,42.805,6.029,-0.033,0.015,-0.032,108.0,107.0,104.0,13.4,1505.2,6.1,-0.7,1.8,2471.787,13.29,0.036,294.4
2024-04-04T02:04:03,42.805,6.029,-0.04,-0.008,-0.004,108.0,108.0,105.0,13.3,1505.2,356.0,-0.7,1.8,2471.856,13.29,0.04,258.7
2024-04-04T02:07:03,42.805,6.029,-0.048,0.008,-0.001,108.0,107.0,105.0,13.3,1505.2,353.5,-0.7,1.8,2471.823,13.29,0.048,279.5
2024-04-04T02:10:03,42.805,6.029,-0.027,0.004,-0.04,107.0,107.0,103.0,13.3,1505.2,356.0,-0.8,1.8,2471.813,13.29,0.027,278.4
2024-04-04T02:13:03,42.805,6.029,-0.044,0.025,-0.034,108.0,106.0,104.0,13.4,1505.2,358.3,-0.8,1.8,2471.844,13.29,0.05,299.6
2024-04-04T02:16:03,42.805,6.029,-0.042,0.017,-0.015,108.0,107.0,105.0,13.4,1505.2,357.2,-0.8,1.8,2471.827,13.29,0.045,292.0
2024-04-04T02:19:03,42.805,6.029,-0.037,0.003,-0.022,108.0,107.0,104.0,13.4,1505.2,356.6,-0.8,1.8,2471.801,13.29,0.037,274.6
2024-04-04T02:22:03,42.805,6.029,-0.053,-0.008,-0.029,108.0,107.0,105.0,13.4,1505.2,357.1,-0.7,1.8,2471.841,13.29,0.053,261.4
2024-04-04T02:25:03,42.805,6.029,-0.054,0.019,-0.002,112.0,106.0,106.0,13.3,1505.2,357.7,-0.7,1.8,2471.819,13.29,0.057,289.4
2024-04-04T02:28:03,42.805,6.029,-0.03,-0.006,0.008,108.0,106.0,105.0,13.3,1505.2,358.3,-0.8,1.8,2471.82,13.29,0.03,258.7
2024-04-04T02:31:03,42.805,6.029,-0.051,-0.001,-0.016,109.0,106.0,104.0,13.4,1505.2,356.6,-0.8,1.8,2471.788,13.29,0.051,268.9
2024-04-04T02:34:03,42.805,6.029,-0.041,0.001,-0.022,108.0,106.0,104.0,13.4,1505.2,356.5,-0.7,1.8,2471.815,13.29,0.041,271.4
2024-04-04T02:37:03,42.805,6.029,-0.058,0.004,-0.016,108.0,107.0,104.0,13.4,1505.2,357.1,-0.7,1.8,2471.813,13.29,0.058,273.9
2024-04-04T02:40:03,42.805,6.029,-0.045,0.0,-0.028,108.0,106.0,104.0,13.4,1505.2,6.7,-0.8,1.8,2471.837,13.29,0.045,270.0
2024-04-04T02:43:03,42.805,6.029,-0.037,-0.003,-0.028,108.0,106.0,104.0,13.4,1505.2,351.7,-0.7,1.8,2471.852,13.29,0.037,265.4
2024-04-04T02:46:03,42.805,6.029,-0.037,-0.025,-0.007,108.0,107.0,105.0,13.4,1505.2,353.3,-0.7,1.8,2471.814,13.29,0.044,236.0
2024-04-04T02:49:03,42.805,6.029,-0.039,0.002,0.016,107.0,106.0,104.0,13.4,1505.2,4.4,-0.8,1.8,2471.85,13.29,0.039,272.9
2024-04-04T02:52:03,42.805,6.029,-0.054,0.01,0.002,107.0,106.0,104.0,13.4,1505.2,2.4,-0.8,1.8,2471.847,13.29,0.054,280.5
2024-04-04T02:55:03,42.805,6.029,-0.034,0.005,0.008,109.0,106.0,104.0,13.4,1505.2,7.1,-0.8,1.8,2471.835,13.29,0.034,278.4
2024-04-04T02:58:03,42.805,6.029,-0.027,-0.013,-0.001,107.0,107.0,105.0,13.4,1505.2,7.7,-0.8,1.8,2471.81,13.29,0.029,244.3
2024-04-04T04:04:03,42.805,6.029,-0.04,0.01,-0.018,106.0,107.0,104.0,13.4,1505.2,7.0,-0.7,1.8,2472.244,13.28,0.041,284.0
2024-04-04T04:07:03,42.805,6.029,-0.037,0.0,-0.016,106.0,106.0,105.0,13.4,1505.2,3.8,-0.8,1.8,2472.159,13.28,0.037,270.0
2024-04-04T04:10:03,42.805,6.029,-0.066,0.0,-0.013,106.0,106.0,103.0,13.3,1505.2,355.1,-0.8,1.8,2472.164,13.28,0.065,270.0
2024-04-04T04:13:03,42.805,6.029,-0.05,-0.013,-0.022,108.0,107.0,105.0,13.4,1505.2,357.8,-0.8,1.8,2472.129,13.29,0.051,255.4
2024-04-04T04:16:03,42.805,6.029,-0.035,-0.007,-0.002,108.0,105.0,105.0,13.3,1505.2,8.2,-0.8,1.8,2472.092,13.29,0.035,258.7
2024-04-04T04:19:03,42.805,6.029,-0.03,-0.018,-0.034,107.0,106.0,103.0,13.4,1505.2,357.2,-0.8,1.8,2472.073,13.29,0.034,239.0
2024-04-04T04:22:03,42.805,6.029,-0.061,-0.01,-0.038,107.0,107.0,104.0,13.4,1505.2,351.8,-0.8,1.8,2472.089,13.29,0.061,260.7
2024-04-04T04:25:03,42.805,6.029,-0.034,-0.011,0.006,107.0,105.0,104.0,13.3,1505.2,4.0,-0.7,1.8,2472.049,13.29,0.035,252.1
2024-04-04T04:28:03,42.805,6.029,-0.064,-0.002,-0.011,107.0,106.0,104.0,13.4,1505.2,9.3,-0.8,1.9,2472.078,13.29,0.064,268.2
2024-04-04T04:31:03,42.805,6.029,-0.04,-0.002,0.0,107.0,106.0,104.0,13.4,1505.2,353.3,-0.7,1.8,2471.957,13.29,0.04,267.1
2024-04-04T04:34:03,42.805,6.029,-0.045,0.001,-0.024,107.0,106.0,104.0,13.4,1505.2,358.3,-0.7,1.8,2471.964,13.29,0.045,271.3
2024-04-04T04:37:03,42.805,6.029,-0.06,-0.002,-0.036,106.0,106.0,103.0,13.4,1505.2,2.1,-0.7,1.8,2471.939,13.29,0.06,268.1
2024-04-04T04:40:03,42.805,6.029,-0.073,-0.013,-0.035,108.0,106.0,104.0,13.4,1505.2,355.6,-0.7,1.8,2471.935,13.29,0.074,259.9
2024-04-04T04:43:03,42.805,6.029,-0.043,0.0,0.019,107.0,107.0,103.0,13.4,1505.2,5.6,-0.7,1.8,2471.921,13.29,0.043,270.0
2024-04-04T04:46:03,42.805,6.029,-0.048,0.003,-0.019,107.0,107.0,105.0,13.4,1505.2,1.6,-0.8,1.8,2471.886,13.29,0.048,273.6
2024-04-04T04:49:03,42.805,6.029,-0.056,-0.003,-0.01,107.0,106.0,103.0,13.4,1505.2,5.4,-0.8,1.8,2471.873,13.29,0.056,266.9
2024-04-04T04:52:03,42.805,6.029,-0.058,-0.019,-0.011,107.0,104.0,104.0,13.4,1505.2,2.1,-0.8,1.8,2471.856,13.29,0.061,251.9
2024-04-04T04:55:03,42.805,6.029,-0.039,-0.006,-0.024,107.0,106.0,103.0,13.4,1505.2,4.7,-0.8,1.8,2471.881,13.29,0.039,261.3
2024-04-04T04:58:03,42.805,6.029,-0.045,-0.006,-0.041,108.0,106.0,103.0,13.4,1505.2,2.3,-0.8,1.8,2471.877,13.29,0.045,262.4
2024-04-04T05:04:03,42.805,6.029,-0.056,-0.013,0.005,107.0,106.0,104.0,13.4,1505.2,353.1,-0.7,1.8,2471.851,13.29,0.057,256.9
2024-04-04T05:07:03,42.805,6.029,-0.051,-0.034,-0.031,106.0,107.0,103.0,13.4,1505.2,2.4,-0.7,1.8,2471.869,13.29,0.061,236.3
2024-04-04T05:10:03,42.805,6.029,-0.039,0.0,-0.031,106.0,106.0,105.0,13.4,1505.2,7.6,-0.8,1.8,2471.876,13.29,0.039,270.0
2024-04-04T05:13:03,42.805,6.029,-0.045,-0.022,0.002,107.0,107.0,104.0,13.3,1505.2,357.8,-0.7,1.8,2471.875,13.29,0.05,243.9
2024-04-04T05:16:03,42.805,6.029,-0.053,-0.015,-0.039,106.0,106.0,104.0,13.3,1505.2,2.9,-0.8,1.8,2471.861,13.29,0.055,254.2
2024-04-04T05:19:06,42.805,6.029,-0.044,-0.01,-0.021,107.0,106.0,104.0,13.4,1505.2,3.6,-0.8,1.8,2471.844,13.29,0.045,257.2
2024-04-04T05:22:03,42.805,6.029,-0.057,0.027,-0.014,107.0,106.0,104.0,13.4,1505.2,8.9,-0.8,1.8,2471.86,13.29,0.063,295.3
2024-04-04T05:25:03,42.805,6.029,-0.05,-0.004,-0.013,106.0,106.0,103.0,13.4,1505.2,355.1,-0.8,1.8,2471.816,13.29,0.05,265.4
2024-04-04T05:28:03,42.805,6.029,-0.06,-0.002,-0.014,107.0,106.0,104.0,13.4,1505.2,355.7,-0.8,1.8,2471.81,13.29,0.06,268.1
2024-04-04T05:31:03,42.805,6.029,-0.029,-0.023,0.003,108.0,107.0,104.0,13.4,1505.2,355.7,-0.7,1.8,2471.852,13.29,0.037,231.6
2024-04-04T05:34:03,42.805,6.029,-0.035,-0.02,-0.013,107.0,105.0,104.0,13.4,1505.2,8.1,-0.8,1.8,2471.83,13.29,0.04,240.3
2024-04-04T05:37:03,42.805,6.029,-0.037,-0.021,-0.018,107.0,107.0,104.0,13.4,1505.2,351.7,-0.8,1.8,2471.832,13.29,0.042,240.4
2024-04-04T05:40:03,42.805,6.029,-0.065,-0.029,-0.01,107.0,105.0,103.0,13.3,1505.2,5.3,-0.8,1.8,2471.849,13.29,0.071,246.0
2024-04-04T05:43:03,42.805,6.029,-0.044,-0.015,-0.003,106.0,107.0,103.0,13.4,1505.2,358.7,-0.7,1.8,2471.896,13.29,0.046,251.2
2024-04-04T05:46:03,42.805,6.029,-0.066,-0.014,-0.026,107.0,107.0,105.0,13.3,1505.2,357.3,-0.7,1.8,2471.843,13.29,0.067,258.0
2024-04-04T05:49:03,42.805,6.029,-0.054,-0.014,-0.028,107.0,106.0,103.0,13.4,1505.2,3.9,-0.8,1.8,2471.815,13.29,0.055,255.5
2024-04-04T05:52:03,42.805,6.029,-0.048,-0.005,0.0,107.0,107.0,104.0,13.4,1505.2,7.3,-0.8,1.8,2471.762,13.29,0.048,264.1
2024-04-04T05:55:03,42.805,6.029,-0.047,-0.007,-0.037,107.0,107.0,105.0,13.3,1505.2,355.1,-0.8,1.8,2471.802,13.29,0.047,261.5
2024-04-04T05:58:03,42.805,6.029,-0.061,-0.019,-0.007,107.0,106.0,104.0,13.3,1505.2,357.7,-0.8,1.8,2471.796,13.29,0.063,252.7
2024-04-04T07:04:03,42.805,6.029,-0.055,-0.008,-0.028,108.0,108.0,105.0,13.4,1505.2,352.0,-0.8,1.8,2472.196,13.28,0.055,261.7
2024-04-04T07:07:03,42.805,6.029,-0.056,0.0,0.001,108.0,107.0,103.0,13.4,1505.2,3.6,-0.8,1.8,2472.132,13.28,0.056,270.0
2024-04-04T07:10:03,42.805,6.029,-0.056,0.007,0.005,107.0,108.0,104.0,13.4,1505.2,1.2,-0.7,1.8,2472.073,13.28,0.056,277.1
2024-04-04T07:13:03,42.805,6.029,-0.059,0.009,0.022,107.0,106.0,104.0,13.4,1505.2,355.8,-0.8,1.8,2472.064,13.29,0.059,278.7
2024-04-04T07:16:03,42.805,6.029,-0.053,-0.014,-0.008,109.0,107.0,103.0,13.4,1505.2,357.0,-0.7,1.8,2472.091,13.29,0.054,255.2
2024-04-04T07:19:08,42.805,6.029,-0.046,0.0,-0.014,110.0,107.0,103.0,13.3,1505.2,7.8,-0.8,1.8,2472.001,13.29,0.046,270.0
2024-04-04T07:22:03,42.805,6.029,-0.044,-0.031,-0.013,107.0,106.0,105.0,13.3,1505.2,359.4,-0.7,1.8,2471.974,13.29,0.053,234.8
2024-04-04T07:25:03,42.805,6.029,-0.039,-0.019,0.0,108.0,107.0,105.0,13.3,1505.2,356.0,-0.8,1.8,2471.965,13.29,0.043,244.0
2024-04-04T07:28:03,42.805,6.029,-0.051,-0.004,0.002,108.0,107.0,105.0,13.4,1505.2,5.4,-0.8,1.8,2471.957,13.29,0.051,265.5
2024-04-04T07:31:03,42.805,6.029,-0.053,0.006,0.005,107.0,106.0,104.0,13.3,1505.2,357.8,-0.7,1.8,2471.945,13.29,0.053,276.5
2024-04-04T07:34:03,42.805,6.029,-0.044,-0.018,0.004,108.0,107.0,104.0,13.4,1505.2,5.1,-0.7,1.8,2471.918,13.29,0.047,247.8
2024-04-04T07:37:03,42.805,6.029,-0.048,-0.007,-0.015,107.0,107.0,103.0,13.4,1505.2,358.2,-0.8,1.8,2471.936,13.29,0.048,261.7
2024-04-04T07:40:03,42.805,6.029,-0.052,0.011,-0.01,108.0,107.0,104.0,13.4,1505.2,6.5,-0.7,1.8,2471.835,13.29,0.053,281.9
2024-04-04T07:43:03,42.805,6.029,-0.041,-0.027,0.01,107.0,107.0,104.0,13.4,1505.2,357.5,-0.7,1.8,2471.863,13.29,0.049,236.6
2024-04-04T07:46:03,42.805,6.029,-0.042,-0.038,-0.002,108.0,107.0,104.0,13.4,1505.2,0.0,-0.8,1.8,2471.823,13.29,0.056,227.9
2024-04-04T07:49:03,42.805,6.029,-0.054,-0.026,-0.033,107.0,107.0,104.0,13.3,1505.2,354.0,-0.8,1.8,2471.84,13.29,0.059,244.3
2024-04-04T07:52:03,42.805,6.029,-0.056,-0.011,-0.003,107.0,105.0,104.0,13.4,1505.2,0.0,-0.8,1.8,2471.848,13.29,0.057,258.9
2024-04-04T07:55:03,42.805,6.029,-0.064,-0.02,0.005,107.0,106.0,104.0,13.3,1505.2,359.4,-0.8,1.8,2471.786,13.29,0.067,252.6
2024-04-04T07:58:03,42.805,6.029,-0.036,-0.007,-0.025,108.0,106.0,103.0,13.3,1505.2,8.3,-0.8,1.8,2471.816,13.29,0.036,259.0
2024-04-04T08:04:03,42.805,6.029,-0.047,-0.001,0.02,108.0,106.0,104.0,13.4,1505.2,4.0,-0.8,1.8,2471.827,13.29,0.047,268.8
2024-04-04T08:07:03,42.805,6.029,-0.072,0.008,0.0,107.0,106.0,104.0,13.4,1505.2,7.3,-0.8,1.8,2471.825,13.29,0.072,276.3
2024-04-04T08:10:03,42.805,6.029,-0.039,-0.009,0.002,107.0,107.0,104.0,13.4,1505.2,355.1,-0.8,1.8,2471.767,13.29,0.04,257.0
2024-04-04T08:13:03,42.805,6.029,-0.05,-0.035,0.009,107.0,107.0,103.0,13.4,1505.2,358.3,-0.8,1.8,2471.782,13.29,0.061,235.0
2024-04-04T08:16:03,42.805,6.029,-0.065,-0.006,-0.009,108.0,108.0,104.0,13.4,1505.2,1.0,-0.8,1.8,2471.798,13.29,0.065,264.7
2024-04-04T08:19:03,42.805,6.029,-0.061,0.0,0.004,108.0,107.0,105.0,13.4,1505.2,5.2,-0.7,1.8,2471.793,13.29,0.06,270.0
2024-04-04T08:22:03,42.805,6.029,-0.067,-0.003,0.002,107.0,107.0,103.0,13.3,1505.2,1.1,-0.7,1.8,2471.748,13.29,0.067,267.4
2024-04-04T08:25:03,42.805,6.029,-0.055,0.011,-0.005,107.0,107.0,104.0,13.3,1505.2,352.5,-0.8,1.8,2471.766,13.29,0.056,281.3
2024-04-04T08:28:03,42.805,6.029,-0.066,-0.005,0.015,107.0,107.0,105.0,13.3,1505.2,353.8,-0.8,1.8,2471.762,13.29,0.066,265.7
2024-04-04T08:31:03,42.805,6.029,-0.056,-0.002,-0.001,106.0,107.0,104.0,13.4,1505.2,352.7,-0.8,1.8,2471.765,13.29,0.056,268.0
2024-04-04T08:34:03,42.805,6.029,-0.048,0.0,-0.021,106.0,107.0,104.0,13.3,1505.2,4.1,-0.8,1.8,2471.751,13.29,0.048,270.0
2024-04-04T08:37:03,42.805,6.029,-0.08,0.011,0.001,106.0,106.0,105.0,13.4,1505.2,4.1,-0.7,1.8,2471.766,13.29,0.08,277.8
2024-04-04T08:40:03,42.805,6.029,-0.061,-0.012,-0.008,107.0,106.0,104.0,13.4,1505.2,358.1,-0.8,1.8,2471.737,13.29,0.062,258.9
2024-04-04T08:43:03,42.805,6.029,-0.056,0.008,-0.01,108.0,107.0,104.0,13.4,1505.2,7.7,-0.8,1.8,2471.71,13.29,0.056,278.1
2024-04-04T08:46:03,42.805,6.029,-0.048,0.007,0.008,109.0,107.0,104.0,13.4,1505.2,2.4,-0.7,1.8,2471.719,13.29,0.048,278.3
2024-04-04T08:49:03,42.805,6.029,-0.063,0.006,-0.016,108.0,107.0,105.0,13.4,1505.2,4.3,-0.8,1.8,2471.733,13.29,0.063,275.4
2024-04-04T08:52:03,42.805,6.029,-0.053,-0.038,0.011,107.0,107.0,105.0,13.4,1505.2,352.1,-0.8,1.8,2471.739,13.29,0.065,234.4
2024-04-04T08:55:03,42.805,6.029,-0.049,0.0,0.009,107.0,106.0,104.0,13.3,1505.2,357.2,-0.8,1.8,2471.727,13.29,0.049,270.0
2024-04-04T08:58:03,42.805,6.029,-0.061,0.004,-0.007,107.0,108.0,104.0,13.3,1505.2,8.9,-0.8,1.8,2471.712,13.29,0.061,273.7
2024-04-04T09:04:03,42.805,6.029,-0.045,0.001,-0.022,106.0,109.0,104.0,13.3,1505.2,4.3,-0.8,1.8,2471.75,13.29,0.045,271.3
2024-04-04T09:07:03,42.805,6.029,-0.054,-0.005,-0.008,108.0,107.0,104.0,13.4,1505.2,7.2,-0.7,1.8,2471.687,13.29,0.054,264.7
2024-04-04T09:10:03,42.805,6.029,-0.047,-0.011,0.001,107.0,107.0,103.0,13.4,1505.2,352.7,-0.8,1.8,2471.721,13.29,0.048,256.8
2024-04-04T09:13:03,42.805,6.029,-0.047,-0.019,-0.021,107.0,107.0,103.0,13.4,1505.2,352.1,-0.8,1.8,2471.718,13.29,0.05,248.0
2024-04-04T09:16:03,42.805,6.029,-0.045,-0.01,-0.032,107.0,107.0,104.0,13.3,1505.2,3.3,-0.8,1.8,2471.705,13.29,0.046,257.5
2024-04-04T09:19:03,42.805,6.029,-0.065,-0.01,-0.043,108.0,105.0,104.0,13.4,1505.2,356.6,-0.7,1.8,2471.704,13.29,0.065,261.3
2024-04-04T09:22:03,42.805,6.029,-0.059,-0.017,-0.012,107.0,106.0,104.0,13.4,1505.2,7.1,-0.7,1.8,2471.717,13.29,0.061,253.9
2024-04-04T09:25:03,42.805,6.029,-0.057,-0.025,-0.023,108.0,106.0,104.0,13.4,1505.2,353.8,-0.8,1.8,2471.706,13.29,0.062,246.3
2024-04-04T09:28:03,42.805,6.029,-0.035,-0.003,-0.014,107.0,106.0,105.0,13.4,1505.2,0.5,-0.7,1.8,2471.671,13.29,0.035,265.1
2024-04-04T09:31:03,42.805,6.029,-0.073,0.007,-0.002,106.0,107.0,104.0,13.3,1505.2,355.9,-0.7,1.8,2471.726,13.29,0.073,275.5
2024-04-04T09:34:03,42.805,6.029,-0.027,0.002,-0.03,107.0,107.0,104.0,13.4,1505.2,0.0,-0.8,1.8,2471.702,13.29,0.027,274.2
2024-04-04T09:37:03,42.805,6.029,-0.056,-0.002,0.003,106.0,108.0,104.0,13.3,1505.2,358.7,-0.8,1.8,2471.711,13.29,0.056,268.0
2024-04-04T09:40:03,42.805,6.029,-0.063,-0.01,-0.039,107.0,107.0,104.0,13.4,1505.2,4.5,-0.7,1.8,2471.729,13.29,0.063,261.0
2024-04-04T09:43:03,42.805,6.029,-0.056,-0.002,0.017,108.0,106.0,104.0,13.3,1505.2,0.0,-0.8,1.8,2471.709,13.29,0.056,268.0
2024-04-04T09:46:03,42.805,6.029,-0.065,0.0,0.016,107.0,107.0,104.0,13.4,1505.2,358.3,-0.8,1.8,2471.697,13.29,0.064,270.0
2024-04-04T09:49:03,42.805,6.029,-0.054,0.001,-0.014,108.0,107.0,103.0,13.4,1505.2,358.9,-0.7,1.8,2471.677,13.29,0.054,271.1
2024-04-04T09:52:03,42.805,6.029,-0.058,0.0,-0.023,109.0,106.0,103.0,13.4,1505.2,3.9,-0.8,1.8,2471.689,13.29,0.057,270.0
2024-04-04T09:55:03,42.805,6.029,-0.047,0.008,-0.011,107.0,107.0,104.0,13.4,1505.2,359.4,-0.8,1.8,2471.675,13.29,0.047,279.7
2024-04-04T09:58:03,42.805,6.029,-0.049,0.011,-0.021,109.0,107.0,104.0,13.4,1505.2,0.5,-0.7,1.8,2471.638,13.29,0.05,282.7
2024-04-04T10:04:03,42.805,6.029,-0.041,-0.023,-0.014,106.0,107.0,104.0,13.3,1505.2,351.8,-0.8,1.9,2471.735,13.29,0.047,240.7
2024-04-04T10:07:03,42.805,6.029,-0.067,-0.008,-0.007,108.0,107.0,104.0,13.4,1505.2,5.1,-0.8,1.8,2471.663,13.29,0.067,263.2
2024-04-04T10:10:03,42.805,6.029,-0.045,-0.009,-0.001,107.0,108.0,104.0,13.4,1505.2,4.1,-0.8,1.8,2471.67,13.29,0.045,258.7
2024-04-04T10:13:03,42.805,6.029,-0.065,-0.002,-0.022,108.0,106.0,104.0,13.4,1505.2,8.2,-0.7,1.8,2471.704,13.29,0.065,268.2
2024-04-04T10:16:03,42.805,6.029,-0.051,-0.007,-0.002,108.0,107.0,104.0,13.4,1505.2,358.7,-0.8,1.8,2471.673,13.29,0.051,262.2
2024-04-04T10:19:08,42.805,6.029,-0.046,-0.01,-0.004,108.0,107.0,104.0,13.4,1505.2,0.0,-0.8,1.8,2471.707,13.29,0.047,257.7
2024-04-04T10:22:03,42.805,6.029,-0.049,0.017,0.0,108.0,106.0,104.0,13.4,1505.2,6.4,-0.8,1.8,2471.663,13.29,0.051,289.1
2024-04-04T10:25:03,42.805,6.029,-0.059,0.013,-0.002,108.0,107.0,105.0,13.4,1505.2,0.0,-0.8,1.8,2471.679,13.29,0.06,282.4
2024-04-04T10:28:03,42.805,6.029,-0.055,-0.001,0.001,107.0,108.0,104.0,13.4,1505.2,8.7,-0.8,1.8,2471.677,13.29,0.055,269.0
2024-04-04T10:31:03,42.805,6.029,-0.037,-0.02,-0.005,107.0,107.0,105.0,13.3,1505.2,353.5,-0.7,1.8,2471.661,13.29,0.042,241.6
2024-04-04T10:34:03,42.805,6.029,-0.058,0.0,-0.008,107.0,106.0,104.0,13.4,1505.2,358.9,-0.8,1.8,2471.673,13.29,0.057,270.0
2024-04-04T10:37:03,42.805,6.029,-0.061,-0.014,0.0,108.0,106.0,104.0,13.4,1505.2,3.2,-0.7,1.8,2471.651,13.29,0.062,257.1
2024-04-04T10:40:03,42.805,6.029,-0.057,-0.012,-0.021,108.0,106.0,104.0,13.4,1505.2,353.3,-0.7,1.8,2471.669,13.29,0.058,258.1
2024-04-04T10:43:03,42.805,6.029,-0.054,-0.006,-0.009,107.0,107.0,104.0,13.4,1505.2,353.0,-0.8,1.9,2471.682,13.29,0.054,263.7
2024-04-04T10:46:03,42.805,6.029,-0.064,-0.015,0.014,107.0,108.0,104.0,13.3,1505.2,1.1,-0.7,1.8,2471.681,13.29,0.065,256.8
2024-04-04T10:49:03,42.805,6.029,-0.044,0.005,-0.018,107.0,108.0,104.0,13.4,1505.2,3.8,-0.8,1.8,2471.675,13.29,0.044,276.5
2024-04-04T10:52:03,42.805,6.029,-0.054,0.006,0.016,107.0,107.0,105.0,13.4,1505.2,358.9,-0.8,1.8,2471.691,13.29,0.054,276.3
2024-04-04T10:55:03,42.805,6.029,-0.054,0.018,-0.025,108.0,106.0,103.0,13.4,1505.2,0.6,-0.7,1.8,2471.688,13.29,0.056,288.4
2024-04-04T10:58:03,42.805,6.029,-0.034,0.004,0.007,108.0,106.0,104.0,13.4,1505.2,358.2,-0.8,1.8,2471.666,13.29,0.034,276.7
2024-04-04T11:04:03,42.805,6.029,-0.045,-0.001,-0.01,108.0,107.0,104.0,13.4,1505.2,351.7,-0.7,1.8,2471.722,13.29,0.045,268.7
2024-04-04T11:07:03,42.805,6.029,-0.05,0.003,-0.012,108.0,107.0,104.0,13.3,1505.2,5.7,-0.8,1.8,2471.684,13.29,0.05,273.4
2024-04-04T11:10:03,42.805,6.029,-0.051,-0.009,-0.027,107.0,106.0,104.0,13.4,1505.2,357.7,-0.7,1.8,2471.665,13.29,0.051,260.0
2024-04-04T11:13:03,42.805,6.029,-0.048,0.016,-0.015,107.0,106.0,104.0,13.4,1505.2,8.9,-0.8,1.8,2471.698,13.29,0.05,288.4
2024-04-04T11:16:03,42.805,6.029,-0.035,0.004,-0.007,107.0,106.0,103.0,13.4,1505.2,354.1,-0.8,1.8,2471.688,13.29,0.035,276.5
2024-04-04T11:19:03,42.805,6.029,-0.051,0.006,-0.034,108.0,107.0,104.0,13.4,1505.2,3.9,-0.7,1.8,2471.677,13.29,0.051,276.7
2024-04-04T11:22:03,42.805,6.029,-0.031,0.005,-0.001,108.0,107.0,104.0,13.4,1505.2,3.4,-0.7,1.9,2471.673,13.29,0.031,279.2
2024-04-04T11:25:03,42.805,6.029,-0.042,0.01,0.003,108.0,107.0,104.0,13.4,1505.2,1.0,-0.8,1.8,2471.644,13.29,0.043,283.4
2024-04-04T11:28:03,42.805,6.029,-0.064,0.013,-0.027,107.0,106.0,104.0,13.4,1505.2,1.0,-0.8,1.8,2471.662,13.29,0.065,281.5
2024-04-04T11:31:03,42.805,6.029,-0.048,0.022,0.005,107.0,106.0,104.0,13.3,1505.2,356.4,-0.8,1.8,2471.685,13.29,0.052,294.6
2024-04-04T11:34:03,42.805,6.029,-0.053,0.008,-0.004,107.0,106.0,104.0,13.4,1505.2,1.2,-0.8,1.8,2471.629,13.29,0.053,278.6
2024-04-04T11:37:03,42.805,6.029,-0.05,-0.009,-0.016,107.0,106.0,105.0,13.4,1505.2,356.6,-0.7,1.8,2471.678,13.29,0.05,259.8
2024-04-04T11:40:03,42.805,6.029,-0.053,0.02,-0.03,109.0,106.0,103.0,13.4,1505.2,8.5,-0.7,1.8,2471.638,13.29,0.056,290.7
2024-04-04T11:43:03,42.805,6.029,-0.047,-0.024,-0.025,107.0,107.0,104.0,13.3,1505.2,0.5,-0.7,1.8,2471.658,13.29,0.052,243.0
2024-04-04T11:46:03,42.805,6.029,-0.053,0.002,-0.027,108.0,107.0,104.0,13.4,1505.2,4.6,-0.7,1.8,2471.618,13.29,0.053,272.2
2024-04-04T11:49:03,42.805,6.029,-0.037,0.0,0.0,107.0,107.0,103.0,13.4,1505.2,4.5,-0.8,1.8,2471.628,13.29,0.037,270.0
2024-04-04T11:52:03,42.805,6.029,-0.05,0.01,0.005,108.0,106.0,104.0,13.3,1505.2,2.8,-0.8,1.8,2471.686,13.29,0.05,281.3
2024-04-04T11:55:03,42.805,6.029,-0.055,0.013,-0.023,108.0,106.0,104.0,13.4,1505.2,5.5,-0.8,1.8,2471.636,13.29,0.056,283.3
2024-04-04T11:58:03,42.805,6.029,-0.022,-0.009,-0.013,107.0,106.0,104.0,13.4,1505.2,352.5,-0.8,1.8,2471.676,13.29,0.023,247.8